Bedford, Massachusetts, United States (01730)
Lat: 42.49N, Lon: 71.28W
Wx Zone: MAZ005
Local Info
Past Weather Observations for Sunday, October 19, 2014

NOTE: This archive is for the closest National Weather Service station to Bedford. Information may differ from the station used for current weather conditions.

Click here for Long-term Archive

Time Weather Temperature Dewpoint Humidity Pressure Winds Precip Visibility
23:56
Clear
37°F / 3°C 23°F / -5°C 56% 29.98 in
(1015 mb)
WNW 9.2 mph
(WNW 15 kph)
- 10SM
22:56
Clear
39°F / 4°C 23°F / -5°C 52% 29.95 in
(1014 mb)
NW 9.2 mph
(NW 15 kph)
- 10SM
21:56
Overcast
43°F / 6°C 25°F / -4°C 49% 29.95 in
(1014 mb)
NNW 18.4 mph
(NNW 30 kph)
- 10SM
20:56
Overcast
45°F / 7°C 30°F / -1°C 57% 29.95 in
(1014 mb)
NNW 9.2 mph
(NNW 15 kph)
- 10SM
19:56
Overcast
45°F / 7°C 28°F / -2°C 53% 29.92 in
(1013 mb)
NW 11.5 mph
(NW 19 kph)
- 10SM
18:56
Overcast
45°F / 7°C 28°F / -2°C 53% 29.92 in
(1013 mb)
NW 6.9 mph
(NW 11 kph)
- 10SM
17:56
Overcast
45°F / 7°C 30°F / -1°C 57% 29.89 in
(1012 mb)
NNW 10.4 mph
(NNW 17 kph)
- 10SM
16:56
Overcast
46°F / 8°C 30°F / -1°C 53% 29.86 in
(1011 mb)
NNW 12.7 mph
(NNW 20 kph)
- 10SM
15:56
Overcast
48°F / 9°C 28°F / -2°C 46% 29.83 in
(1010 mb)
NW 16.1 mph
(NW 26 kph)
- 10SM
14:56
Overcast
50°F / 10°C 30°F / -1°C 47% 29.8 in
(1009 mb)
NW 17.3 mph
(NW 28 kph)
- 10SM
13:56
Mostly Cloudy
52°F / 11°C 32°F / 0°C 47% 29.8 in
(1009 mb)
NW 17.3 mph
(NW 28 kph)
- 10SM
12:56
Mostly Cloudy
52°F / 11°C 32°F / 0°C 47% 29.77 in
(1008 mb)
NNW 18.4 mph
(NNW 30 kph)
- 10SM
11:56
Partly Cloudy
54°F / 12°C 34°F / 1°C 47% 29.74 in
(1007 mb)
NW 19.6 mph
(NW 32 kph)
- 10SM
10:56
Mostly Cloudy
52°F / 11°C 34°F / 1°C 50% 29.8 in
(1009 mb)
NNW 12.7 mph
(NNW 20 kph)
- 10SM
09:56
Partly Cloudy
52°F / 11°C 36°F / 2°C 54% 29.77 in
(1008 mb)
NNW 19.6 mph
(NNW 32 kph)
- 10SM
08:56
Mostly Cloudy
48°F / 9°C 36°F / 2°C 62% 29.77 in
(1008 mb)
NW 12.7 mph
(NW 20 kph)
- 10SM
07:56
Overcast
48°F / 9°C 36°F / 2°C 62% 29.77 in
(1008 mb)
NW 12.7 mph
(NW 20 kph)
- 10SM
06:56
Mostly Cloudy
48°F / 9°C 36°F / 2°C 62% 29.77 in
(1008 mb)
NW 18.4 mph
(NW 30 kph)
- 10SM
05:56
Overcast
48°F / 9°C 37°F / 3°C 66% 29.74 in
(1007 mb)
NW 13.8 mph
(NW 22 kph)
- 10SM
04:56
Overcast
50°F / 10°C 39°F / 4°C 67% 29.68 in
(1005 mb)
N 11.5 mph
(N 19 kph)
- 10SM
03:56
Overcast
52°F / 11°C 43°F / 6°C 72% 29.65 in
(1004 mb)
NW 8.1 mph
(NW 13 kph)
- 10SM
02:56
Overcast
54°F / 12°C 46°F / 8°C 77% 29.62 in
(1003 mb)
NW 5.8 mph
(NW 9 kph)
- 10SM
01:56
Overcast
54°F / 12°C 46°F / 8°C 77% 29.62 in
(1003 mb)
W 8.1 mph
(W 13 kph)
- 10SM
00:56
Partly Cloudy
52°F / 11°C 45°F / 7°C 77% 29.62 in
(1003 mb)
SSW 4.6 mph
(SSW 7 kph)
- 10SM
Time Weather Temperature Dewpoint Humidity Pressure Winds Precip Visibility


Weather for websites

WeatherForYou.com, LLC is not responsible for any damages or problems caused by this service. Current weather conditions are obtained from the closest station including government and personal stations which may have varying degrees of accuracy. Weather forecasts are derived from the NOAA NDFD. Like all things, this site belongs to Jesus Christ... He just trusts me to maintain it. If you have any questions or comments email webmaster@weatherforyou.com

Copyright © 2014, WeatherForYou.com LLC. All rights reserved.